| time (UTC) | temp C | wind direction | speed KPH | gust KPH | rain 1hr cm | rain 24hr cm | rain mn cm | humidity % | barometer mb |
| 20260505234602 | 23 | 44 | 17.7 | 27.4 | 0.00 | 0.00 | 0.00 | 30 | 1010.3 |
| 20260505233102 | 23 | 33 | 20.9 | 25.7 | 0.00 | 0.00 | 0.00 | 29 | 1010.3 |
| 20260505231603 | 24 | 62 | 14.5 | 27.4 | 0.00 | 0.00 | 0.00 | 29 | 1010.3 |
| 20260505224602 | 25 | 28 | 11.3 | 17.7 | 0.00 | 0.00 | 0.00 | 30 | 1010.4 |
| 20260505223104 | 24 | 5 | 8.0 | 17.7 | 0.00 | 0.00 | 0.00 | 27 | 1010.4 |
| 20260505221602 | 24 | 12 | 8.0 | 20.9 | 0.00 | 0.00 | 0.00 | 29 | 1010.7 |
| 20260505220107 | 23 | 53 | 9.7 | 19.3 | 0.00 | 0.00 | 0.00 | 28 | 1010.8 |
| 20260505214602 | 24 | 27 | 19.3 | 25.7 | 0.00 | 0.00 | 0.00 | 28 | 1010.7 |
| 20260505213106 | 24 | 345 | 12.9 | 25.7 | 0.00 | 0.00 | 0.00 | 29 | 1010.7 |
| 20260505211604 | 25 | 25 | 4.8 | 11.3 | 0.00 | 0.00 | 0.00 | 26 | 1010.8 |
| 20260505210103 | 24 | 49 | 1.6 | 20.9 | 0.00 | 0.00 | 0.00 | 24 | 1010.9 |
| 20260505204603 | 23 | 339 | 0.0 | 14.5 | 0.00 | 0.00 | 0.00 | 27 | 1011.0 |
| 20260505203103 | 23 | 21 | 6.4 | 11.3 | 0.00 | 0.00 | 0.00 | 26 | 1011.2 |
| 20260505201603 | 23 | 316 | 8.0 | 16.1 | 0.00 | 0.00 | 0.00 | 27 | 1011.3 |
| 20260505194602 | 23 | 38 | 9.7 | 20.9 | 0.00 | 0.00 | 0.00 | 27 | 1011.6 |
| 20260505193104 | 23 | 340 | 6.4 | 14.5 | 0.00 | 0.00 | 0.00 | 27 | 1011.5 |
| 20260505190105 | 22 | 41 | 16.1 | 20.9 | 0.00 | 0.00 | 0.00 | 30 | 1011.7 |
| 20260505184603 | 23 | 23 | 17.7 | 22.5 | 0.00 | 0.00 | 0.00 | 30 | 1011.8 |
| 20260505183103 | 23 | 58 | 16.1 | 27.4 | 0.00 | 0.00 | 0.00 | 33 | 1011.7 |
| 20260505181602 | 22 | 105 | 3.2 | 8.0 | 0.00 | 0.00 | 0.00 | 36 | 1011.9 |
| 20260505180104 | 21 | 96 | 0.0 | 9.7 | 0.00 | 0.00 | 0.00 | 44 | 1012.0 |
| 20260505174603 | 21 | 116 | 0.0 | 8.0 | 0.00 | 0.00 | 0.00 | 45 | 1012.1 |
| 20260505171602 | 20 | 143 | 3.2 | 6.4 | 0.00 | 0.00 | 0.00 | 47 | 1012.4 |
| 20260505170105 | 20 | 165 | 1.6 | 8.0 | 0.00 | 0.00 | 0.00 | 48 | 1012.3 |
| 20260505164602 | 19 | 208 | 0.0 | 6.4 | 0.00 | 0.00 | 0.00 | 49 | 1012.3 |
| 20260505163103 | 19 | 159 | 0.0 | 4.8 | 0.00 | 0.00 | 0.00 | 52 | 1012.3 |
| 20260505161602 | 18 | 130 | 1.6 | 6.4 | 0.00 | 0.00 | 0.00 | 50 | 1012.3 |
| 20260505153102 | 18 | 146 | 0.0 | 3.2 | 0.00 | 0.00 | 0.00 | 53 | 1012.1 |
| 20260505151603 | 18 | 158 | 0.0 | 3.2 | 0.00 | 0.00 | 0.00 | 53 | 1012.0 |
| 20260505130105 | 8 | 335 | 4.8 | 9.7 | 0.00 | 0.00 | 0.00 | 72 | 1011.0 |
| 20260505124603 | 8 | 337 | 1.6 | 8.0 | 0.00 | 0.00 | 0.00 | 75 | 1010.8 |
| 20260505123102 | 8 | 345 | 0.0 | 3.2 | 0.00 | 0.00 | 0.00 | 72 | 1010.7 |
| 20260505121602 | 9 | 335 | 0.0 | 4.8 | 0.00 | 0.00 | 0.00 | 69 | 1010.4 |
| 20260505120104 | 8 | 285 | 4.8 | 6.4 | 0.00 | 0.00 | 0.00 | 72 | 1010.2 |
| 20260505114605 | 8 | 347 | 0.0 | 6.4 | 0.00 | 0.00 | 0.00 | 71 | 1010.1 |
| 20260505113102 | 9 | 328 | 0.0 | 3.2 | 0.00 | 0.00 | 0.00 | 70 | 1009.9 |
| 20260505111602 | 9 | 41 | 4.8 | 6.4 | 0.00 | 0.00 | 0.00 | 68 | 1010.0 |
| 20260505101603 | 10 | 13 | 0.0 | 6.4 | 0.00 | 0.00 | 0.00 | 66 | 1009.6 |
| 20260505100105 | 10 | 341 | 4.8 | 6.4 | 0.00 | 0.00 | 0.00 | 64 | 1009.5 |
| 20260505094604 | 10 | 339 | 3.2 | 6.4 | 0.00 | 0.00 | 0.00 | 64 | 1009.5 |
| 20260505091602 | 10 | 335 | 3.2 | 8.0 | 0.00 | 0.00 | 0.00 | 63 | 1009.4 |
| 20260505090104 | 12 | 343 | 1.6 | 6.4 | 0.00 | 0.00 | 0.00 | 59 | 1009.4 |
| 20260505084601 | 11 | 323 | 4.8 | 8.0 | 0.00 | 0.00 | 0.00 | 60 | 1009.5 |
| 20260505083106 | 12 | 351 | 1.6 | 9.7 | 0.00 | 0.00 | 0.00 | 58 | 1009.4 |
| 20260505081603 | 11 | 20 | 3.2 | 9.7 | 0.00 | 0.00 | 0.00 | 60 | 1009.5 |
| 20260505080103 | 12 | 325 | 0.0 | 8.0 | 0.00 | 0.00 | 0.00 | 59 | 1009.5 |
| 20260505074606 | 12 | 330 | 3.2 | 9.7 | 0.00 | 0.00 | 0.00 | 61 | 1009.5 |
| 20260505073103 | 12 | 349 | 3.2 | 6.4 | 0.00 | 0.00 | 0.00 | 60 | 1009.5 |
| 20260505071602 | 12 | 351 | 6.4 | 6.4 | 0.00 | 0.00 | 0.00 | 59 | 1009.4 |
| 20260505070104 | 11 | 358 | 0.0 | 8.0 | 0.00 | 0.00 | 0.00 | 64 | 1009.3 |
| 20260505064605 | 10 | 3 | 0.0 | 4.8 | 0.00 | 0.00 | 0.00 | 68 | 1009.2 |
| 20260505063104 | 12 | 294 | 1.6 | 4.8 | 0.00 | 0.00 | 0.00 | 60 | 1009.1 |
| 20260505061602 | 12 | 290 | 1.6 | 8.0 | 0.00 | 0.00 | 0.00 | 59 | 1009.1 |
| 20260505054605 | 12 | 11 | 0.0 | 8.0 | 0.00 | 0.00 | 0.00 | 62 | 1009.1 |
| 20260505053107 | 12 | 336 | 0.0 | 6.4 | 0.00 | 0.00 | 0.00 | 63 | 1009.2 |
| 20260505051601 | 11 | 352 | 0.0 | 3.2 | 0.00 | 0.00 | 0.00 | 65 | 1009.3 |
| 20260505050105 | 12 | 4 | 1.6 | 3.2 | 0.00 | 0.00 | 0.00 | 61 | 1009.2 |
| 20260505041602 | 15 | 333 | 1.6 | 4.8 | 0.00 | 0.00 | 0.00 | 53 | 1008.7 |
| 20260505034601 | 15 | 353 | 3.2 | 4.8 | 0.00 | 0.00 | 0.00 | 52 | 1008.3 |
| 20260505033103 | 17 | 348 | 1.6 | 6.4 | 0.00 | 0.00 | 0.00 | 45 | 1008.0 |
| 20260505031603 | 18 | 40 | 1.6 | 8.0 | 0.00 | 0.00 | 0.00 | 42 | 1007.6 |
| 20260505024602 | 21 | 15 | 1.6 | 11.3 | 0.00 | 0.00 | 0.00 | 33 | 1007.4 |
| 20260505023102 | 22 | 49 | 4.8 | 16.1 | 0.00 | 0.00 | 0.00 | 30 | 1007.2 |
| 20260505020103 | 23 | 18 | 17.7 | 22.5 | 0.00 | 0.00 | 0.00 | 31 | 1006.9 |
| 20260505014602 | 23 | 23 | 3.2 | 20.9 | 0.00 | 0.00 | 0.00 | 33 | 1006.8 |
| 20260505013102 | 23 | 44 | 12.9 | 24.1 | 0.00 | 0.00 | 0.00 | 30 | 1006.7 |
| 20260505011602 | 23 | 26 | 9.7 | 29.0 | 0.00 | 0.00 | 0.00 | 31 | 1006.7 |
| 20260505004602 | 25 | 13 | 8.0 | 20.9 | 0.00 | 0.00 | 0.00 | 26 | 1006.6 |
| 20260505003102 | 25 | 330 | 3.2 | 20.9 | 0.00 | 0.00 | 0.00 | 26 | 1006.6 |